Location: Newark
(48.8604°N, 2.3376°E)
Time: 14:51:27
(UTC+00:00)

AO-7 - Visible Passes

Search period start: 09 December 2021 00:00
Search period end: 19 December 2021 00:00
Orbit: 1439 x 1459 km, 101.9° (Epoch: 08 December)

Date Brightness Start Highest point End Pass type
(mag) Time Alt. Az. Time Alt. Az. Time Alt. Az.
09 Dec ? 02:33:43 10° NE 02:39:25 20° E 02:45:04 10° SE visible
09 Dec ? 04:25:03 10° NNE 04:33:25 81° ESE 04:41:47 10° SSW visible
09 Dec ? 06:18:28 10° N 06:25:26 31° NW 06:32:23 10° WSW visible
09 Dec ? 17:29:07 10° W 17:31:22 11° W 17:33:37 10° WNW visible
10 Dec ? 03:25:24 10° NNE 03:33:08 40° E 03:40:49 10° SSE visible
10 Dec ? 05:18:05 10° NNE 05:26:10 58° WNW 05:34:15 10° SW visible
10 Dec ? 16:23:16 10° SSW 16:30:09 29° W 16:37:06 10° NW visible
11 Dec ? 02:27:00 10° NE 02:32:14 18° E 02:37:25 10° SE visible
11 Dec ? 04:18:00 10° NNE 04:26:22 75° ESE 04:34:43 10° SSW visible
11 Dec ? 06:11:22 10° N 06:18:30 34° NW 06:25:39 10° WSW visible
11 Dec ? 17:20:44 10° WSW 17:24:08 13° W 17:27:33 10° WNW visible
12 Dec ? 03:18:27 10° NNE 03:26:01 36° E 03:33:32 10° SSE visible
12 Dec ? 05:11:00 10° NNE 05:19:10 63° WNW 05:27:21 10° SW visible
13 Dec ? 02:20:22 10° NE 02:25:02 16° E 02:29:40 10° ESE visible
13 Dec ? 04:10:59 10° NNE 04:19:19 69° ESE 04:27:37 10° S visible
13 Dec ? 06:04:15 10° N 06:11:34 36° NW 06:18:52 10° WSW visible
13 Dec ? 17:12:43 10° WSW 17:16:54 15° W 17:21:08 10° NW visible
14 Dec ? 03:11:32 10° NNE 03:18:53 33° E 03:26:13 10° SSE visible
14 Dec ? 05:03:55 10° NNE 05:12:10 68° WNW 05:20:25 10° SW visible
14 Dec ? 06:57:44 10° N 07:03:31 22° NW 07:09:20 10° W visible
15 Dec ? 02:13:50 10° NE 02:17:49 14° E 02:21:47 10° ESE visible
15 Dec ? 04:03:57 10° NNE 04:12:15 64° ESE 04:20:30 10° S visible
15 Dec ? 05:57:09 10° N 06:04:37 39° NW 06:12:06 10° WSW visible
15 Dec ? 17:04:52 10° WSW 17:09:42 16° W 17:14:34 10° NW visible
16 Dec ? 03:04:37 10° NE 03:11:45 30° E 03:18:51 10° SSE visible
16 Dec ? 04:56:52 10° NNE 05:05:10 73° WNW 05:13:28 10° SSW visible
16 Dec ? 06:50:36 10° N 06:56:38 23° NW 07:02:41 10° W visible
17 Dec ? 02:07:31 10° ENE 02:10:36 12° E 02:13:40 10° ESE visible
17 Dec ? 03:56:57 10° NNE 04:05:11 59° ESE 04:13:22 10° S visible
17 Dec ? 05:50:04 10° N 05:57:40 42° NW 06:05:18 10° WSW visible
17 Dec ? 16:57:09 10° SW 17:02:31 18° W 17:07:53 10° NW visible
18 Dec ? 02:57:43 10° NE 03:04:36 28° E 03:11:27 10° SSE visible
18 Dec ? 04:49:48 10° NNE 04:58:09 79° WNW 05:06:30 10° SSW visible
18 Dec ? 06:43:28 10° N 06:49:44 25° NW 06:56:02 10° W visible
